Theta_e
318 318 319 318 318 318 318 317 316 316 316 316 316 316 316 317 316 316 317 317 317 318 318 318 318 317 317 317 316 316 316 316 316 316 316 317 317 317 317 317 318 318
316 316 316 316 316 315 316 316 316 316 316 316 316 316 316 315 315 316 316 316 316 317 317 317 317 317 317 316 316 315 316 315 315 316 316 316 317 317 317 317 317 317
310 311 311 312 314 313 313 313 314 315 315 316 315 315 315 314 315 314 315 316 316 316 316 316 317 316 316 316 315 315 315 314 314 314 315 316 316 316 316 317 317 316
302 305 308 310 311 313 312 312 311 312 311 312 312 313 313 312 312 313 313 311 315 315 315 315 315 316 315 316 315 315 315 314 315 313 314 316 316 316 316 317 316 316
298 299 301 304 305 307 308 308 309 308 309 309 309 308 308 308 308 310 310 311 312 313 313 313 314 314 314 314 314 314 314 314 314 314 315 315 316 316 316 316 316 315
297 298 300 303 304 305 306 306 306 306 306 306 308 306 307 307 307 308 308 309 309 310 310 310 311 312 312 313 313 313 313 313 314 315 315 315 316 316 316 316 316 315
296 297 299 302 303 303 302 302 302 302 305 305 303 304 303 305 305 306 306 306 307 306 309 309 310 310 310 311 311 312 312 312 312 314 314 315 316 315 315 315 315 315
294 294 295 296 297 296 296 297 297 299 301 302 304 302 302 304 304 303 302 304 305 305 306 306 307 309 308 308 312 313 313 313 314 314 314 314 315 314 315 315 315 314
293 293 294 294 294 294 293 294 294 294 295 298 299 301 300 301 303 304 303 303 303 302 303 303 304 305 305 307 310 312 313 313 313 313 314 313 313 314 314 314 314 313
291 291 292 292 291 291 291 291 292 292 293 294 295 296 296 297 299 300 301 302 302 302 301 301 301 301 303 304 309 310 311 313 312 312 313 313 313 313 313 313 313 312
289 289 290 290 289 289 289 289 289 290 290 291 292 292 292 293 294 295 296 297 299 299 300 300 301 302 304 304 305 305 307 309 310 311 311 312 312 312 308 312 311 311
287 287 287 287 287 288 288 288 288 288 289 289 289 290 289 289 290 291 292 294 294 295 295 297 298 299 300 301 302 304 304 305 306 307 307 307 308 309 309 309 309 310
286 286 286 286 286 286 286 287 287 286 287 287 286 286 287 287 286 287 286 288 290 291 293 295 295 295 295 296 298 301 303 303 303 303 304 304 305 305 305 306 306 307
286 286 286 286 286 286 287 286 286 286 286 285 285 286 286 286 286 286 285 285 286 287 289 290 290 291 291 292 294 296 298 299 300 300 298 299 299 299 300 301 302 303
286 286 287 287 286 287 287 286 286 285 285 286 286 285 286 285 286 287 286 286 286 286 286 288 290 290 290 290 291 293 294 296 297 296 293 293 294 294 294 295 297 298
286 286 286 286 287 286 285 285 286 286 286 286 286 285 285 285 285 285 286 285 286 286 286 287 289 290 289 291 292 291 292 292 293 292 291 291 290 290 291 291 290 291
285 285 285 286 286 286 286 286 286 286 286 286 286 286 285 285 285 286 285 285 285 285 285 286 287 289 291 293 293 294 289 290 290 290 289 287 287 287 288 288 288 288
284 285 285 285 285 285 285 285 285 286 286 285 286 285 285 284 286 285 285 285 285 285 285 284 285 289 292 292 293 293 292 289 288 288 288 286 285 285 285 285 286 286
283 284 284 284 283 283 284 284 284 285 285 285 285 284 284 285 285 285 285 284 285 285 285 284 284 289 292 292 292 292 293 290 287 286 286 285 284 284 284 284 284 285
283 283 283 283 283 283 283 283 284 283 283 283 283 284 284 284 284 284 284 284 284 284 284 284 284 288 291 291 291 292 293 290 286 286 285 284 284 285 284 285 285 285
282 282 282 282 282 282 283 283 283 283 283 283 283 283 283 284 284 284 284 283 283 282 283 284 285 289 290 291 291 292 292 289 285 285 284 284 284 284 284 284 285 285
281 281 281 281 282 282 282 282 282 282 282 282 282 282 282 282 282 281 282 283 282 282 283 284 284 289 290 290 291 292 292 285 284 284 283 283 284 284 284 285 284 284
281 281 281 281 281 281 281 281 281 282 282 281 282 282 282 283 282 282 282 282 282 283 282 282 283 286 289 289 290 291 289 284 283 283 283 283 284 284 285 285 286 285
280 280 280 280 280 281 280 280 280 280 280 280 281 282 282 282 282 282 283 283 283 284 283 282 283 285 288 289 290 291 289 284 284 283 283 283 283 284 284 285 287 286
280 280 280 280 280 280 279 280 280 280 279 280 280 281 281 281 281 282 282 284 285 285 285 285 285 285 287 289 289 290 288 285 284 284 283 283 283 284 284 285 285 285
279 279 279 280 280 279 279 279 279 279 280 280 280 281 282 283 284 284 284 284 285 285 285 285 285 285 285 288 289 290 290 287 284 283 283 283 283 283 283 283 283 283
Wind_Speed
8 7 8 7 8 7 6 6 6 6 7 6 7 7 8 7 5 7 8 8 8 8 8 8 7 7 7 7 7 7 7 9 8 7 8 9 9 9 9 10 10 9
7 6 6 6 6 5 6 5 6 6 6 6 6 6 5 5 6 6 7 7 7 8 7 7 7 7 7 6 7 7 7 7 8 6 8 9 9 9 10 11 11 10
2 3 4 5 6 4 5 4 5 6 6 6 5 5 6 4 5 5 6 6 6 7 7 7 6 6 7 6 6 7 7 7 8 6 7 9 8 8 9 9 8 10
0 2 4 4 5 5 5 4 4 5 4 5 5 4 3 4 4 4 5 5 6 6 6 5 7 6 6 6 6 6 7 7 7 5 7 7 7 8 8 8 8 8
2 2 1 1 2 2 1 3 3 3 3 3 3 3 3 4 4 4 4 4 4 5 4 5 4 5 5 5 6 6 6 6 6 6 7 8 7 7 8 7 8 8
4 3 3 2 1 1 0 0 1 1 2 3 3 2 3 3 3 4 4 4 4 4 4 4 4 5 4 5 5 6 6 6 6 6 7 8 8 7 6 7 8 8
4 4 5 4 5 5 5 4 4 3 3 2 1 2 2 1 2 3 3 3 3 3 4 4 4 4 4 4 5 6 6 6 5 6 7 7 7 7 6 7 7 8
4 4 4 5 6 5 5 4 4 3 3 3 4 3 3 3 3 2 2 2 2 2 3 3 3 3 3 3 4 5 5 5 5 6 6 7 7 7 7 6 7 8
5 5 5 5 7 5 5 5 5 4 3 4 4 3 4 4 3 4 4 3 2 3 3 3 3 3 3 3 3 4 4 4 4 5 6 6 6 7 6 6 6 7
6 3 6 5 6 4 5 5 4 5 4 4 4 3 5 4 5 4 5 5 4 4 4 4 5 4 3 2 3 3 3 4 3 4 5 5 5 6 5 5 6 6
6 5 6 6 6 5 6 5 5 4 5 5 4 5 4 3 4 4 4 4 4 3 3 3 3 2 4 3 3 2 2 3 3 3 3 4 4 5 5 5 5 5
7 7 8 7 6 6 6 6 6 6 6 6 6 5 5 5 5 5 4 4 4 3 3 3 3 3 4 3 2 2 2 1 1 1 2 2 3 3 3 3 3 4
7 7 7 7 7 6 6 6 7 6 7 7 6 6 6 7 6 6 5 4 4 4 4 4 5 5 5 5 5 4 4 3 2 1 1 1 2 2 2 3 3 3
6 5 5 5 5 4 5 5 6 7 6 6 6 8 8 7 6 6 5 5 5 5 4 4 4 5 5 5 4 4 4 4 3 4 4 4 3 4 3 2 2 2
5 4 5 5 5 5 6 6 6 5 5 5 6 6 6 5 5 6 6 6 6 5 6 5 7 6 5 4 5 5 4 3 4 4 3 3 3 4 3 4 3 2
5 5 5 5 6 6 5 4 5 5 6 6 7 6 6 5 6 5 6 6 6 6 6 6 6 5 8 9 6 4 4 3 3 3 3 4 4 5 5 4 4 4
5 5 5 7 5 5 5 6 6 5 6 7 7 6 6 6 5 7 7 6 6 6 7 7 6 7 12 10 10 9 5 4 4 5 4 4 4 4 6 7 6 6
5 5 7 6 6 7 6 5 5 6 7 6 6 7 6 4 7 6 5 6 5 5 6 6 5 9 12 11 11 10 8 5 4 4 4 4 4 4 4 5 5 6
5 6 7 7 6 5 5 6 6 8 8 8 8 5 4 7 6 6 6 6 6 7 6 6 5 9 11 11 11 11 11 8 5 4 4 5 5 5 5 4 4 5
5 6 7 6 5 5 6 7 7 7 5 4 4 5 6 5 5 6 5 6 5 5 5 4 4 9 11 11 11 11 11 8 4 5 4 4 4 5 5 5 5 5
6 6 6 5 5 5 6 7 6 5 6 6 5 6 6 6 6 6 5 5 5 4 4 4 4 8 10 11 11 10 10 7 5 5 5 5 5 4 4 4 5 5
5 5 5 5 5 5 6 6 5 5 6 5 5 5 4 4 4 4 5 5 5 4 5 6 5 9 9 10 10 10 9 5 6 5 5 5 5 4 5 6 5 4
4 5 5 5 5 5 6 5 5 5 5 4 4 5 6 6 5 4 4 5 5 5 5 4 5 8 9 8 8 8 6 5 4 5 5 5 5 4 5 6 5 5
4 4 5 4 4 5 4 3 3 2 3 3 4 5 6 4 4 5 4 3 4 4 4 4 4 6 8 10 9 9 6 6 6 6 6 6 7 5 6 5 6 10
4 4 4 4 4 4 3 4 4 3 3 2 3 1 2 2 2 1 3 3 3 3 5 3 4 5 8 8 10 10 8 5 6 6 7 7 7 8 6 5 6 6
3 4 4 4 4 3 3 3 2 3 3 3 3 3 3 3 3 4 4 3 3 2 2 3 3 4 5 9 9 10 11 7 6 8 9 9 8 7 9 6 4 5
Wind_Direction
218 211 220 220 227 227 231 225 222 220 226 216 218 225 215 226 203 205 217 220 222 226 225 225 225 225 227 225 221 219 220 221 224 217 217 221 227 226 230 229 230 230
218 216 223 226 237 232 236 225 230 222 236 228 232 235 231 218 217 207 217 220 223 227 227 226 225 225 224 220 218 218 225 220 227 213 219 223 226 225 229 231 230 232
251 236 230 228 232 240 237 231 228 231 232 234 231 228 233 217 226 216 221 219 222 228 228 226 228 224 222 221 216 216 222 221 226 217 215 226 226 223 230 230 231 230
245 215 214 219 219 228 228 227 234 235 240 252 242 242 232 233 218 223 222 220 223 228 226 223 225 226 220 221 215 218 222 222 224 211 215 228 226 224 229 230 231 232
40 16 343 287 290 290 278 235 255 260 256 256 287 268 248 248 234 235 226 228 220 234 231 231 230 229 221 223 214 224 223 225 223 207 215 227 227 220 228 228 228 231
41 41 40 57 62 54 67 38 310 310 277 268 250 251 240 233 231 231 231 230 227 226 235 233 232 232 219 221 217 222 225 222 225 208 218 226 233 220 223 224 228 231
44 39 44 50 66 59 73 54 36 19 19 313 351 10 331 285 242 243 244 237 240 232 234 238 233 243 222 217 218 228 226 226 223 212 216 227 229 232 220 221 226 229
52 47 48 53 64 53 58 48 40 35 23 37 61 34 33 29 19 349 337 298 260 274 269 269 267 259 252 214 230 230 240 227 226 220 222 228 226 233 224 219 222 226
58 51 51 53 56 41 42 31 21 21 14 59 59 53 49 49 42 41 26 38 32 13 0 339 324 304 296 251 244 247 248 244 231 229 232 234 237 238 236 231 229 230
48 49 66 62 64 46 48 27 20 23 11 41 47 53 55 41 48 42 53 56 64 52 46 34 20 4 350 331 290 275 263 257 247 239 241 246 244 247 248 239 238 239
29 22 48 53 55 46 42 33 27 23 26 27 24 50 38 56 55 47 68 67 68 60 50 44 25 14 41 16 4 342 299 291 289 277 264 263 261 262 256 249 247 242
33 30 27 26 32 38 35 32 30 29 26 28 20 28 29 32 47 43 52 70 67 61 62 48 31 22 37 31 17 15 22 340 296 281 282 281 289 290 288 288 278 274
43 35 30 26 23 22 27 36 38 35 38 31 20 39 34 27 20 35 19 46 50 55 51 44 43 36 33 19 7 2 5 358 350 333 290 273 255 261 272 270 263 262
60 54 48 42 33 31 37 40 40 40 39 34 36 39 33 28 26 26 14 34 30 40 36 47 56 48 33 25 15 8 4 4 10 11 3 356 355 346 343 322 301 286
60 61 57 51 43 42 37 37 43 51 55 55 51 46 39 29 28 30 30 32 31 36 31 31 43 34 27 14 8 9 9 3 360 356 348 333 327 324 323 321 311 296
56 55 55 55 51 45 36 34 37 37 47 51 50 50 47 38 36 38 40 32 27 22 29 31 30 26 15 24 28 23 356 355 350 341 334 343 339 334 328 323 311 313
54 51 53 51 42 44 35 32 30 34 44 43 41 40 39 30 37 42 37 32 35 27 26 23 17 12 11 20 21 21 23 7 7 351 353 349 340 330 324 324 325 324
42 44 49 43 39 35 30 23 26 35 37 35 36 32 23 29 40 35 32 27 29 34 37 22 12 3 11 12 14 15 18 19 10 8 354 347 339 331 320 320 316 318
47 49 47 40 33 31 28 30 33 33 28 23 22 8 20 39 28 28 26 20 26 25 17 7 9 1 9 10 9 8 9 17 8 8 2 347 340 334 328 324 320 321
52 56 53 42 33 35 37 40 39 33 23 19 10 16 30 32 31 33 23 25 25 21 8 359 5 357 6 7 8 7 7 14 5 358 355 344 342 333 331 326 325 323
48 50 48 39 35 37 41 41 35 26 26 15 18 16 18 17 10 18 14 11 13 20 14 10 1 359 7 5 3 3 2 10 354 356 352 347 338 336 324 322 320 318
51 51 46 38 35 35 43 35 27 24 20 359 11 11 10 14 8 24 17 7 356 3 21 8 349 1 5 1 356 353 358 358 356 351 347 334 333 330 325 316 309 304
48 54 49 42 34 42 37 29 21 12 10 1 14 15 13 11 7 1 350 357 359 0 8 2 345 344 352 351 348 346 352 348 347 344 337 333 321 317 315 313 311 310
44 50 52 41 42 40 30 18 14 10 15 357 17 4 6 354 339 346 351 356 354 346 347 347 332 330 342 341 346 348 1 353 342 344 336 330 326 321 316 308 302 304
43 46 46 45 41 24 20 21 14 5 326 351 353 357 330 295 303 323 331 334 325 311 319 325 315 324 335 336 337 340 346 347 345 341 335 332 330 323 315 310 310 305
48 48 37 45 37 19 9 2 343 4 356 2 356 4 358 356 12 17 16 355 320 287 280 283 298 315 327 330 333 336 340 342 345 350 337 329 326 321 321 309 275 284